Starlink 32351

operational
NORAD ID: 61529 Int'l Des: 2024-183 Owner: SPXS Country: US Constellation: starlink
LEOCIRCULAR

About Starlink 32351

Description loading...

Live Position

Loading 3D Globe...

Upcoming Passes

Altitude History

Altitude vs Time

uPlot chart will show altitude changes over time

Two-Line Element Set

1 61529U 24183W 25351.78770460 -.00000830 00000-0 -15899-4 0 9995
2 61529 53.1594 159.9931 0001637 95.0156 265.1031 15.30189339 67151
Epoch: Dec 17, 2025 • Age: 21 hours

Current Status

Altitude 477.9 km
Velocity 7.63 km/s
Sub-Earth Point -9.48°S, 13.75°E
Launch Date Oct 15, 2024
Age 1.1 years
Type internet

Technical Details

Classification Payload
Mass 730.00 kg
Dry Mass 700.00 kg
Total Mass 730.00 kg
Length 0.30 m
Diameter 4.10 m
Span 29.00 m
Shape Box + pan
Manufacturer SPXS
Bus Type Starlink V2M
Phase Status In Orbit
Owner/State SPXS/US

Large Constellations

Loading constellations...